FW4151 Weather Reports


time (UTC)temp
C
wind
direction
speed
KPH
gust
KPH
rain 1hr
cm
rain 24hr
cm
rain mn
cm
humidity
%
barometer
mb
20260503200032 11 0.0 0.0 0.00 0.00 0.00 38 1010.4
20260503194531 11 0.0 0.0 0.00 0.00 0.00 38 1010.8
20260503193034 11 0.0 0.0 0.00 0.00 0.00 37 1010.9
20260503191528 11 0.0 0.0 0.00 0.00 0.00 36 1010.9
20260503190033 11 0.0 0.0 0.00 0.00 0.00 34 1011.0
20260503184525 11 0.0 0.0 0.00 0.00 0.00 40 1011.1
20260503183034 11 0.0 0.0 0.00 0.00 0.00 37 1011.5
20260503181519 10 0.0 0.0 0.00 0.00 0.00 43 1011.5
20260503180019 10 0.0 0.0 0.00 0.00 0.00 40 1011.6
20260503174512 9 0.0 0.0 0.00 0.00 0.00 43 1012.0
20260503173012 9 0.0 0.0 0.00 0.00 0.00 40 1012.2
20260503171513 9 0.0 0.0 0.00 0.00 0.00 41 1012.3
20260503160105 7 0.0 0.0 0.00 0.00 0.00 40 1012.8
20260503081610 1 0.0 0.0 0.00 0.00 0.00 80 1012.1
20260503071542 1 0.0 0.0 0.00 0.03 0.00 80 1012.0
20260503070139 1 0.0 0.0 0.00 0.03 0.00 80 1012.0
20260503054530 1 0.0 0.0 0.00 0.03 0.00 78 1012.5
20260503053029 1 0.0 0.0 0.00 0.03 0.00 77 1012.6
20260503051526 1 0.0 0.0 0.00 0.03 0.00 76 1012.7
20260503050034 1 0.0 0.0 0.00 0.03 0.00 76 1013.0
20260503044523 1 0.0 0.0 0.00 0.03 0.00 75 1013.1
20260503043021 2 0.0 0.0 0.00 0.03 0.00 74 1013.2
20260503041519 2 0.0 0.0 0.00 0.03 0.00 72 1013.4
20260503040016 2 0.0 0.0 0.00 0.03 0.00 72 1013.3
20260503034514 2 0.0 0.0 0.00 0.05 0.03 71 1013.3
20260503033023 2 0.0 0.0 0.00 0.05 0.03 69 1013.4
20260503031512 2 0.0 0.0 0.00 0.05 0.03 69 1013.3
20260503030011 3 0.0 0.0 0.00 0.05 0.03 68 1013.4
20260503024511 3 0.0 0.0 0.00 0.08 0.03 68 1013.5
20260503023010 3 0.0 0.0 0.00 0.08 0.03 67 1013.4
20260503021510 3 0.0 0.0 0.00 0.08 0.03 66 1013.5
20260503020009 3 0.0 0.0 0.00 0.08 0.03 66 1013.4
20260503014509 3 0.0 0.0 0.00 0.13 0.03 63 1013.4
20260503013019 3 0.0 0.0 0.00 0.13 0.03 62 1013.3
20260503011507 4 0.0 0.0 0.00 0.13 0.03 61 1013.2
20260503010005 4 0.0 0.0 0.00 0.13 0.03 60 1013.0
20260503004505 4 0.0 0.0 0.00 0.20 0.03 60 1013.0
20260503003005 4 0.0 0.0 0.00 0.20 0.03 59 1012.8
20260503001504 5 0.0 0.0 0.00 0.20 0.03 59 1012.7
20260503000009 5 0.0 0.0 0.00 0.20 0.03 60 1012.7
20260502234502 5 0.0 0.0 0.00 0.41 0.03 60 1012.6
20260502233002 5 0.0 0.0 0.00 0.41 0.03 59 1012.5
20260502231502 5 0.0 0.0 0.00 0.41 0.03 60 1012.4
20260502230000 5 0.0 0.0 0.00 0.41 0.03 60 1012.3
20260502224600 6 0.0 0.0 0.00 0.41 0.03 56 1012.2
20260502223200 6 0.0 0.0 0.00 0.41 0.03 57 1012.2
20260502221604 6 0.0 0.0 0.00 0.41 0.03 57 1012.3
20260502220104 6 0.0 0.0 0.00 0.41 0.03 55 1012.2
20260502214607 6 0.0 0.0 0.00 0.41 0.03 53 1012.2
20260502213057 7 0.0 0.0 0.00 0.41 0.03 53 1012.0
20260502211606 7 0.0 0.0 0.00 0.41 0.03 53 1011.9
20260502204556 7 0.0 0.0 0.00 0.41 0.03 49 1011.9
20260502203103 7 0.0 0.0 0.00 0.41 0.03 46 1011.8
20260502201555 7 0.0 0.0 0.00 0.41 0.03 52 1012.0